Time,TemperatureF,DewpointF,PressureIn,WindDirection,WindDirectionDegrees,WindSpeedMPH,WindSpeedGustMPH,Humidity,HourlyPrecipIn,Conditions,Clouds,dailyrainin,SoftwareType,DateUTC
2013-03-18 00:01:00,46.2,38.7,29.99,NNE,19,7.0,8.0,75,0.00,,,0.00,Wunderground v.1.13,2013-03-18 04:01:00,
2013-03-18 00:10:00,46.2,38.7,29.99,NNE,24,7.0,7.0,75,0.00,,,0.00,Wunderground v.1.13,2013-03-18 04:10:00,
2013-03-18 00:21:00,46.0,38.9,30.00,NE,48,8.0,8.0,76,0.00,,,0.00,Wunderground v.1.13,2013-03-18 04:21:00,
2013-03-18 00:31:00,45.8,38.7,29.99,North,5,6.0,7.0,76,0.00,,,0.00,Wunderground v.1.13,2013-03-18 04:31:00,
2013-03-18 00:51:00,45.5,39.0,29.99,NE,45,6.0,12.0,78,0.00,,,0.00,Wunderground v.1.13,2013-03-18 04:51:00,
2013-03-18 01:01:00,45.5,39.0,29.99,NE,45,7.0,13.0,78,0.00,,,0.00,Wunderground v.1.13,2013-03-18 05:01:00,
2013-03-18 01:11:00,45.5,39.0,29.99,NE,45,5.0,10.0,78,0.00,,,0.00,Wunderground v.1.13,2013-03-18 05:11:00,
2013-03-18 01:21:00,45.5,39.0,29.99,NE,45,7.0,12.0,78,0.00,,,0.00,Wunderground v.1.13,2013-03-18 05:21:00,
2013-03-18 01:31:00,45.4,38.9,30.00,NE,45,6.0,11.0,78,0.00,,,0.00,Wunderground v.1.13,2013-03-18 05:31:00,
2013-03-18 01:51:00,45.1,39.0,30.00,NNE,23,9.0,14.0,79,0.00,,,0.00,Wunderground v.1.13,2013-03-18 05:51:00,
2013-03-18 02:01:00,44.6,38.8,30.00,NE,38,9.0,9.0,80,0.00,,,0.00,Wunderground v.1.13,2013-03-18 06:01:00,
2013-03-18 02:10:00,44.5,39.0,30.00,NNE,29,8.0,8.0,81,0.00,,,0.00,Wunderground v.1.13,2013-03-18 06:10:00,
2013-03-18 02:20:00,44.2,38.7,30.00,North,360,9.0,12.0,81,0.00,,,0.00,Wunderground v.1.13,2013-03-18 06:20:00,
2013-03-18 02:31:00,44.1,39.0,30.00,NE,54,7.0,8.0,82,0.00,,,0.00,Wunderground v.1.13,2013-03-18 06:31:00,
2013-03-18 02:41:00,43.8,38.7,30.00,NE,34,8.0,9.0,82,0.00,,,0.00,Wunderground v.1.13,2013-03-18 06:41:00,
2013-03-18 02:51:00,43.6,38.8,29.99,NE,35,7.0,7.0,83,0.00,,,0.00,Wunderground v.1.13,2013-03-18 06:51:00,
2013-03-18 03:10:00,43.6,38.8,30.00,NNE,23,8.0,11.0,83,0.00,,,0.00,Wunderground v.1.13,2013-03-18 07:10:00,
2013-03-18 03:20:00,42.9,38.7,30.01,NNE,23,8.0,12.0,85,0.00,,,0.00,Wunderground v.1.13,2013-03-18 07:20:00,
2013-03-18 03:31:00,42.8,38.6,30.01,NNE,12,8.0,8.0,85,0.00,,,0.00,Wunderground v.1.13,2013-03-18 07:31:00,
2013-03-18 03:41:00,42.6,38.7,30.01,NE,42,7.0,9.0,86,0.00,,,0.00,Wunderground v.1.13,2013-03-18 07:41:00,
2013-03-18 03:51:00,42.3,38.4,30.01,North,10,7.0,7.0,86,0.00,,,0.00,Wunderground v.1.13,2013-03-18 07:51:00,
2013-03-18 04:10:00,42.2,38.6,30.01,NNE,23,6.0,9.0,87,0.00,,,0.00,Wunderground v.1.13,2013-03-18 08:10:00,
2013-03-18 04:20:00,41.9,38.6,30.00,NE,40,9.0,10.0,88,0.00,,,0.00,Wunderground v.1.13,2013-03-18 08:20:00,
2013-03-18 04:30:00,41.8,38.5,30.00,NNE,15,7.0,8.0,88,0.00,,,0.00,Wunderground v.1.13,2013-03-18 08:30:00,
2013-03-18 04:40:00,41.5,38.5,30.00,NE,34,8.0,10.0,89,0.00,,,0.00,Wunderground v.1.13,2013-03-18 08:40:00,
2013-03-18 04:50:00,41.2,38.2,30.00,NNE,32,9.0,9.0,89,0.00,,,0.00,Wunderground v.1.13,2013-03-18 08:50:00,
2013-03-18 05:00:00,41.2,38.5,30.01,NNE,19,7.0,7.0,90,0.00,,,0.00,Wunderground v.1.13,2013-03-18 09:00:00,
2013-03-18 05:10:00,41.1,38.4,30.01,NNE,23,5.0,9.0,90,0.00,,,0.00,Wunderground v.1.13,2013-03-18 09:10:00,
2013-03-18 05:21:00,40.9,38.2,30.01,NNE,24,8.0,8.0,90,0.00,,,0.00,Wunderground v.1.13,2013-03-18 09:21:00,
2013-03-18 05:30:00,40.8,38.1,30.02,NE,40,8.0,8.0,90,0.00,,,0.00,Wunderground v.1.13,2013-03-18 09:30:00,
2013-03-18 05:40:00,40.8,38.1,30.02,NNE,26,8.0,9.0,90,0.00,,,0.00,Wunderground v.1.13,2013-03-18 09:40:00,
2013-03-18 05:51:00,40.8,38.1,30.02,NE,40,7.0,7.0,90,0.00,,,0.00,Wunderground v.1.13,2013-03-18 09:51:00,
2013-03-18 06:10:00,40.6,38.2,30.02,NNE,23,6.0,10.0,91,0.00,,,0.00,Wunderground v.1.13,2013-03-18 10:10:00,
2013-03-18 06:20:00,40.5,37.8,30.03,NNE,33,6.0,6.0,90,0.00,,,0.00,Wunderground v.1.13,2013-03-18 10:20:00,
2013-03-18 06:30:00,40.5,37.8,30.02,NNE,18,6.0,6.0,90,0.00,,,0.00,Wunderground v.1.13,2013-03-18 10:30:00,
2013-03-18 06:40:00,40.5,37.8,30.02,NNE,17,8.0,8.0,90,0.00,,,0.00,Wunderground v.1.13,2013-03-18 10:40:00,
2013-03-18 06:50:00,40.5,37.8,30.03,NE,38,6.0,6.0,90,0.00,,,0.00,Wunderground v.1.13,2013-03-18 10:50:00,
2013-03-18 07:00:00,40.3,37.9,30.03,NNE,23,6.0,10.0,91,0.00,,,0.00,Wunderground v.1.13,2013-03-18 11:00:00,
2013-03-18 07:10:00,40.3,37.9,30.03,NNE,25,5.0,5.0,91,0.00,,,0.00,Wunderground v.1.13,2013-03-18 11:10:00,
2013-03-18 07:30:00,40.3,37.9,30.03,East,90,3.0,7.0,91,0.00,,,0.00,Wunderground v.1.13,2013-03-18 11:30:00,
2013-03-18 07:40:00,40.3,38.2,30.03,NNE,23,4.0,8.0,92,0.00,,,0.00,Wunderground v.1.13,2013-03-18 11:40:00,
2013-03-18 07:51:00,40.3,38.2,30.03,NNE,25,2.0,3.0,92,0.00,,,0.00,Wunderground v.1.13,2013-03-18 11:51:00,
2013-03-18 08:10:00,40.1,38.0,30.03,NNE,23,5.0,9.0,92,0.00,,,0.00,Wunderground v.1.13,2013-03-18 12:10:00,
2013-03-18 08:20:00,40.1,38.2,30.03,North,11,5.0,5.0,93,0.00,,,0.00,Wunderground v.1.13,2013-03-18 12:20:00,
2013-03-18 08:30:00,40.1,38.2,30.04,NNE,13,6.0,6.0,93,0.00,,,0.00,Wunderground v.1.13,2013-03-18 12:30:00,
2013-03-18 08:40:00,40.2,38.3,30.04,NE,36,4.0,4.0,93,0.00,,,0.00,Wunderground v.1.13,2013-03-18 12:40:00,
2013-03-18 08:50:00,40.2,38.3,30.04,NNE,22,4.0,4.0,93,0.00,,,0.00,Wunderground v.1.13,2013-03-18 12:50:00,
2013-03-18 09:00:00,40.2,38.6,30.03,NNE,30,6.0,7.0,94,0.00,,,0.00,Wunderground v.1.13,2013-03-18 13:00:00,
2013-03-18 09:10:00,40.2,38.6,30.03,NE,53,7.0,11.0,94,0.00,,,0.00,Wunderground v.1.13,2013-03-18 13:10:00,
2013-03-18 09:20:00,40.3,38.7,30.02,NNE,23,3.0,7.0,94,0.00,,,0.00,Wunderground v.1.13,2013-03-18 13:20:00,
2013-03-18 09:31:00,40.3,38.7,30.02,NE,40,6.0,6.0,94,0.00,,,0.00,Wunderground v.1.13,2013-03-18 13:31:00,
2013-03-18 09:40:00,40.5,38.9,30.02,SE,142,4.0,4.0,94,0.00,,,0.00,Wunderground v.1.13,2013-03-18 13:40:00,
2013-03-18 09:51:00,40.3,38.7,30.02,NE,38,5.0,5.0,94,0.00,,,0.00,Wunderground v.1.13,2013-03-18 13:51:00,
2013-03-18 10:01:00,40.5,38.9,30.01,NE,45,3.0,6.0,94,0.00,,,0.00,Wunderground v.1.13,2013-03-18 14:01:00,
2013-03-18 10:21:00,40.5,38.9,30.01,NE,45,4.0,7.0,94,0.00,,,0.00,Wunderground v.1.13,2013-03-18 14:21:00,
2013-03-18 10:41:00,40.8,39.2,30.01,NNE,23,5.0,8.0,94,0.00,,,0.00,Wunderground v.1.13,2013-03-18 14:41:00,
2013-03-18 10:51:00,41.1,39.5,30.02,NNE,23,4.0,7.0,94,0.00,,,0.00,Wunderground v.1.13,2013-03-18 14:51:00,
2013-03-18 11:10:00,41.2,39.6,30.02,NE,45,3.0,6.0,94,0.00,,,0.00,Wunderground v.1.13,2013-03-18 15:10:00,
2013-03-18 11:20:00,41.3,40.0,30.02,NNW,342,4.0,5.0,95,0.00,,,0.00,Wunderground v.1.13,2013-03-18 15:20:00,
2013-03-18 11:30:00,41.2,39.9,30.02,NNE,16,5.0,5.0,95,0.00,,,0.00,Wunderground v.1.13,2013-03-18 15:30:00,
2013-03-18 11:40:00,41.5,40.2,30.02,NE,41,4.0,6.0,95,0.00,,,0.00,Wunderground v.1.13,2013-03-18 15:40:00,
2013-03-18 11:50:00,41.6,40.3,30.02,North,9,5.0,5.0,95,0.00,,,0.00,Wunderground v.1.13,2013-03-18 15:50:00,
2013-03-18 12:00:00,41.5,39.9,30.01,NNE,17,4.0,5.0,94,0.00,,,0.00,Wunderground v.1.13,2013-03-18 16:00:00,
2013-03-18 12:10:00,41.8,40.5,30.01,NNE,28,3.0,4.0,95,0.00,,,0.01,Wunderground v.1.13,2013-03-18 16:10:00,
2013-03-18 12:21:00,41.5,39.9,30.00,ENE,68,5.0,5.0,94,0.00,,,0.01,Wunderground v.1.13,2013-03-18 16:21:00,
2013-03-18 12:40:00,41.3,39.7,30.00,NE,45,5.0,10.0,94,0.01,,,0.01,Wunderground v.1.13,2013-03-18 16:40:00,
2013-03-18 12:51:00,41.9,40.3,29.98,ENE,78,3.0,3.0,94,0.00,,,0.01,Wunderground v.1.13,2013-03-18 16:51:00,
2013-03-18 13:01:00,42.1,40.5,29.97,ENE,67,4.0,8.0,94,0.00,,,0.01,Wunderground v.1.13,2013-03-18 17:01:00,
2013-03-18 13:10:00,42.3,40.7,29.97,East,99,4.0,4.0,94,0.00,,,0.01,Wunderground v.1.13,2013-03-18 17:10:00,
2013-03-18 13:20:00,42.2,40.3,29.97,NNE,23,4.0,4.0,93,0.00,,,0.01,Wunderground v.1.13,2013-03-18 17:20:00,
2013-03-18 13:30:00,42.1,40.2,29.97,NNE,18,4.0,7.0,93,0.00,,,0.01,Wunderground v.1.13,2013-03-18 17:30:00,
2013-03-18 13:40:00,42.2,40.0,29.97,NNE,26,4.0,4.0,92,0.00,,,0.01,Wunderground v.1.13,2013-03-18 17:40:00,
2013-03-18 13:50:00,42.2,40.3,29.96,NE,34,3.0,3.0,93,0.00,,,0.01,Wunderground v.1.13,2013-03-18 17:50:00,
2013-03-18 14:01:00,42.3,40.4,29.94,NE,39,3.0,3.0,93,0.00,,,0.01,Wunderground v.1.13,2013-03-18 18:01:00,
2013-03-18 14:10:00,42.5,40.6,29.94,NNE,25,4.0,5.0,93,0.00,,,0.01,Wunderground v.1.13,2013-03-18 18:10:00,
2013-03-18 14:20:00,42.8,40.9,29.93,ENE,65,2.0,2.0,93,0.00,,,0.01,Wunderground v.1.13,2013-03-18 18:20:00,
2013-03-18 14:30:00,42.5,40.3,29.93,NNE,24,3.0,3.0,92,0.00,,,0.01,Wunderground v.1.13,2013-03-18 18:30:00,
2013-03-18 14:40:00,42.5,40.6,29.93,NE,43,3.0,4.0,93,0.00,,,0.01,Wunderground v.1.13,2013-03-18 18:40:00,
2013-03-18 14:50:00,42.5,40.6,29.92,NNE,22,4.0,5.0,93,0.00,,,0.01,Wunderground v.1.13,2013-03-18 18:50:00,
2013-03-18 15:00:00,42.3,40.4,29.92,NNE,25,2.0,3.0,93,0.00,,,0.01,Wunderground v.1.13,2013-03-18 19:00:00,
2013-03-18 15:10:00,42.5,40.6,29.92,NNE,23,4.0,7.0,93,0.00,,,0.01,Wunderground v.1.13,2013-03-18 19:10:00,
2013-03-18 15:20:00,42.8,41.2,29.89,NNE,23,1.0,4.0,94,0.00,,,0.01,Wunderground v.1.13,2013-03-18 19:20:00,
2013-03-18 15:31:00,42.8,41.2,29.90,NNW,340,3.0,3.0,94,0.00,,,0.01,Wunderground v.1.13,2013-03-18 19:31:00,
2013-03-18 15:50:00,42.3,40.7,29.90,NE,45,4.0,7.0,94,0.00,,,0.01,Wunderground v.1.13,2013-03-18 19:50:00,
2013-03-18 16:00:00,42.5,40.9,29.88,NNE,17,3.0,4.0,94,0.00,,,0.01,Wunderground v.1.13,2013-03-18 20:00:00,
2013-03-18 16:10:00,42.5,40.9,29.88,NNE,12,3.0,3.0,94,0.00,,,0.01,Wunderground v.1.13,2013-03-18 20:10:00,
2013-03-18 16:20:00,42.5,40.9,29.88,North,5,2.0,4.0,94,0.00,,,0.01,Wunderground v.1.13,2013-03-18 20:20:00,
2013-03-18 16:30:00,42.6,41.3,29.87,ENE,71,2.0,2.0,95,0.00,,,0.01,Wunderground v.1.13,2013-03-18 20:30:00,
2013-03-18 16:40:00,42.6,41.3,29.87,NNW,338,3.0,5.0,95,0.00,,,0.01,Wunderground v.1.13,2013-03-18 20:40:00,
2013-03-18 16:50:00,42.5,41.2,29.89,North,0,4.0,6.0,95,0.00,,,0.01,Wunderground v.1.13,2013-03-18 20:50:00,
2013-03-18 17:01:00,42.8,41.5,29.86,NNE,21,0.0,2.0,95,0.00,,,0.01,Wunderground v.1.13,2013-03-18 21:01:00,
2013-03-18 17:10:00,42.3,41.0,29.86,NE,35,3.0,3.0,95,0.00,,,0.01,Wunderground v.1.13,2013-03-18 21:10:00,
2013-03-18 17:20:00,42.5,41.2,29.86,NE,47,2.0,2.0,95,0.00,,,0.01,Wunderground v.1.13,2013-03-18 21:20:00,
2013-03-18 17:40:00,42.6,41.3,29.87,North,0,4.0,8.0,95,0.00,,,0.01,Wunderground v.1.13,2013-03-18 21:40:00,
2013-03-18 17:50:00,42.3,41.0,29.86,North,9,4.0,4.0,95,0.00,,,0.01,Wunderground v.1.13,2013-03-18 21:50:00,
2013-03-18 18:00:00,42.3,41.2,29.86,NNE,20,3.0,3.0,96,0.00,,,0.01,Wunderground v.1.13,2013-03-18 22:00:00,
2013-03-18 18:10:00,42.3,41.2,29.86,NNE,20,4.0,4.0,96,0.00,,,0.02,Wunderground v.1.13,2013-03-18 22:10:00,
2013-03-18 18:20:00,42.5,41.4,29.87,NW,315,6.0,11.0,96,0.01,,,0.02,Wunderground v.1.13,2013-03-18 22:20:00,
2013-03-18 18:30:00,42.2,40.9,29.88,NNW,336,7.0,7.0,95,0.00,,,0.02,Wunderground v.1.13,2013-03-18 22:30:00,
2013-03-18 18:50:00,41.9,40.6,29.88,NW,315,9.0,15.0,95,0.09,,,0.12,Wunderground v.1.13,2013-03-18 22:50:00,
2013-03-18 19:00:00,41.1,39.8,29.89,North,5,9.0,10.0,95,0.05,,,0.13,Wunderground v.1.13,2013-03-18 23:00:00,
2013-03-18 19:10:00,41.1,39.8,29.89,NNW,336,9.0,9.0,95,0.04,,,0.13,Wunderground v.1.13,2013-03-18 23:10:00,
2013-03-18 19:20:00,40.9,39.6,29.91,NE,43,8.0,10.0,95,0.07,,,0.15,Wunderground v.1.13,2013-03-18 23:20:00,
2013-03-18 19:31:00,40.8,39.5,29.92,North,5,7.0,7.0,95,0.06,,,0.17,Wunderground v.1.13,2013-03-18 23:31:00,
2013-03-18 19:40:00,40.8,39.2,29.92,NE,42,6.0,6.0,94,0.06,,,0.17,Wunderground v.1.13,2013-03-18 23:40:00,
2013-03-18 19:50:00,40.8,39.2,29.90,NNE,23,1.0,3.0,94,0.06,,,0.18,Wunderground v.1.13,2013-03-18 23:50:00,
2013-03-18 20:00:00,40.8,39.2,29.89,NE,34,2.0,4.0,94,0.04,,,0.18,Wunderground v.1.13,2013-03-19 00:00:00,
2013-03-18 20:10:00,40.6,39.0,29.89,NNE,30,3.0,6.0,94,0.00,,,0.19,Wunderground v.1.13,2013-03-19 00:10:00,
2013-03-18 20:20:00,40.6,39.0,29.90,NE,45,3.0,3.0,94,0.10,,,0.20,Wunderground v.1.13,2013-03-19 00:20:00,
2013-03-18 20:31:00,40.6,39.0,29.91,NE,34,1.0,1.0,94,0.06,,,0.22,Wunderground v.1.13,2013-03-19 00:31:00,
2013-03-18 20:41:00,40.6,39.0,29.91,NE,34,0.0,0.0,94,0.28,,,0.23,Wunderground v.1.13,2013-03-19 00:41:00,
2013-03-18 20:50:00,40.6,39.3,29.89,NE,34,0.0,4.0,95,0.20,,,0.27,Wunderground v.1.13,2013-03-19 00:50:00,
2013-03-18 21:00:00,40.8,39.5,29.89,NNE,28,2.0,2.0,95,0.31,,,0.31,Wunderground v.1.13,2013-03-19 01:00:00,
2013-03-18 21:11:00,40.8,39.5,29.89,NNE,28,0.0,2.0,95,0.19,,,0.35,Wunderground v.1.13,2013-03-19 01:11:00,
2013-03-18 21:21:00,40.6,39.3,29.85,ESE,117,1.0,2.0,95,0.07,,,0.36,Wunderground v.1.13,2013-03-19 01:21:00,
2013-03-18 21:40:00,40.6,39.3,29.80,ENE,68,1.0,6.0,95,0.15,,,0.36,Wunderground v.1.13,2013-03-19 01:40:00,
2013-03-18 21:50:00,40.8,39.7,29.82,SE,135,0.0,6.0,96,0.09,,,0.36,Wunderground v.1.13,2013-03-19 01:50:00,
2013-03-18 22:00:00,40.8,39.7,29.79,SE,130,0.0,0.0,96,0.00,,,0.36,Wunderground v.1.13,2013-03-19 02:00:00,
2013-03-18 22:10:00,40.6,39.5,29.79,South,183,1.0,1.0,96,0.00,,,0.36,Wunderground v.1.13,2013-03-19 02:10:00,
2013-03-18 22:20:00,40.6,39.5,29.80,South,183,0.0,0.0,96,0.00,,,0.36,Wunderground v.1.13,2013-03-19 02:20:00,
2013-03-18 22:30:00,40.8,39.7,29.81,SSW,206,0.0,3.0,96,0.00,,,0.36,Wunderground v.1.13,2013-03-19 02:30:00,
2013-03-18 22:40:00,40.9,39.8,29.81,NW,309,3.0,4.0,96,0.00,,,0.36,Wunderground v.1.13,2013-03-19 02:40:00,
2013-03-18 22:51:00,41.1,40.0,29.82,NW,319,4.0,4.0,96,0.00,,,0.36,Wunderground v.1.13,2013-03-19 02:51:00,
2013-03-18 23:00:00,41.1,40.0,29.83,NW,324,4.0,4.0,96,0.00,,,0.36,Wunderground v.1.13,2013-03-19 03:00:00,
2013-03-18 23:10:00,41.2,40.1,29.83,NNW,333,4.0,4.0,96,0.00,,,0.36,Wunderground v.1.13,2013-03-19 03:10:00,
2013-03-18 23:30:00,41.2,40.4,29.83,NNW,338,4.0,8.0,97,0.00,,,0.36,Wunderground v.1.13,2013-03-19 03:30:00,
2013-03-18 23:40:00,40.9,39.8,29.83,North,0,4.0,8.0,96,0.00,,,0.36,Wunderground v.1.13,2013-03-19 03:40:00,
2013-03-18 23:51:00,40.9,40.1,29.82,North,9,3.0,5.0,97,0.00,,,0.36,Wunderground v.1.13,2013-03-19 03:51:00,